�������l�o���
Date,Time,MP-1(��Sv/h),MP-2(��Sv/h),MP-3(��Sv/h),MP-4(��Sv/h),MP-5(��Sv/h),MP-6(��Sv/h),MP-7(��Sv/h),MP-8(��Sv/h),����,����(m/s),���J
2016/12/04,00:00,1.086,1.834,1.219,2.066,1.424,0.573,1.038,0.963,��,1.1,��
2016/12/04,00:10,1.085,1.831,1.219,2.067,1.424,0.573,1.037,0.961,��,0.8,��
2016/12/04,00:20,1.085,1.830,1.217,2.068,1.425,0.574,1.038,0.960,��쓌,0.6,��
2016/12/04,00:30,1.088,1.830,1.217,2.067,1.424,0.572,1.038,0.962,�쐼,0.6,��
2016/12/04,00:40,1.085,1.830,1.217,2.067,1.425,0.573,1.035,0.961,��쓌,0.8,��
2016/12/04,00:50,1.087,1.831,1.217,2.067,1.424,0.571,1.039,0.960,��,0.9,��
2016/12/04,01:00,1.085,1.831,1.217,2.067,1.426,0.573,1.038,0.964,��쐼,1.2,��
2016/12/04,01:10,1.086,1.836,1.217,2.068,1.426,0.573,1.039,0.964,��쐼,1.1,��
2016/12/04,01:20,1.087,1.832,1.219,2.066,1.424,0.574,1.036,0.962,��,1.1,��
2016/12/04,01:30,1.086,1.834,1.218,2.067,1.423,0.574,1.039,0.963,�쐼,0.6,��
2016/12/04,01:40,1.085,1.832,1.220,2.069,1.424,0.574,1.038,0.962,�k�k��,0.9,��
2016/12/04,01:50,1.083,1.835,1.216,2.070,1.423,0.573,1.039,0.962,-,CALM,��
2016/12/04,02:00,1.085,1.828,1.217,2.068,1.422,0.572,1.039,0.961,-,CALM,��
2016/12/04,02:10,1.085,1.833,1.217,2.066,1.426,0.573,1.038,0.961,��쐼,0.9,��
2016/12/04,02:20,1.084,1.832,1.216,2.067,1.424,0.573,1.038,0.960,���쐼,1.1,��
2016/12/04,02:30,1.086,1.833,1.218,2.067,1.425,0.572,1.037,0.965,-,CALM,��
2016/12/04,02:40,1.084,1.830,1.219,2.067,1.424,0.574,1.038,0.962,-,CALM,��
2016/12/04,02:50,1.085,1.829,1.216,2.066,1.425,0.572,1.038,0.964,���쓌,0.6,��
2016/12/04,03:00,1.086,1.830,1.216,2.069,1.422,0.573,1.037,0.962,���쐼,0.6,��
2016/12/04,03:10,1.083,1.832,1.218,2.067,1.425,0.571,1.037,0.962,�k,0.9,��
2016/12/04,03:20,1.084,1.830,1.217,2.069,1.423,0.574,1.039,0.962,-,CALM,��
2016/12/04,03:30,1.084,1.833,1.216,2.067,1.425,0.571,1.038,0.962,���k��,0.6,��
2016/12/04,03:40,1.085,1.833,1.218,2.066,1.425,0.573,1.036,0.962,�k��,1.1,��
2016/12/04,03:50,1.085,1.830,1.218,2.068,1.422,0.573,1.039,0.963,��쐼,0.6,��
2016/12/04,04:00,1.082,1.830,1.217,2.065,1.423,0.574,1.036,0.963,��,1.7,��
2016/12/04,04:10,1.085,1.832,1.216,2.065,1.421,0.573,1.037,0.961,���쐼,1.7,��
2016/12/04,04:20,1.086,1.830,1.216,2.065,1.424,0.572,1.037,0.963,���k��,0.8,��
2016/12/04,04:30,1.084,1.829,1.213,2.067,1.425,0.573,1.037,0.962,���k��,0.8,��
2016/12/04,04:40,1.085,1.830,1.216,2.066,1.423,0.573,1.036,0.962,��,0.6,��
2016/12/04,04:50,1.084,1.829,1.215,2.069,1.423,0.572,1.036,0.962,�쐼,0.9,��
2016/12/04,05:00,1.085,1.830,1.216,2.063,1.424,0.572,1.036,0.962,-,CALM,��
2016/12/04,05:10,1.084,1.832,1.219,2.062,1.421,0.574,1.038,0.962,���쐼,0.6,��
2016/12/04,05:20,1.084,1.828,1.216,2.066,1.419,0.573,1.037,0.964,���k��,0.9,��
2016/12/04,05:30,1.084,1.829,1.217,2.069,1.424,0.571,1.038,0.961,���쐼,2.9,��
2016/12/04,05:40,1.086,1.832,1.219,2.065,1.423,0.572,1.037,0.962,�쐼,3.3,��
2016/12/04,05:50,1.085,1.830,1.217,2.066,1.425,0.572,1.037,0.963,�쐼,3.0,��
2016/12/04,06:00,1.083,1.832,1.216,2.065,1.422,0.571,1.039,0.963,���쐼,2.2,��
2016/12/04,06:10,1.084,1.827,1.216,2.064,1.424,0.573,1.038,0.963,���쐼,2.3,��
2016/12/04,06:20,1.085,1.829,1.215,2.065,1.423,0.572,1.040,0.963,���쐼,2.9,��
2016/12/04,06:30,1.083,1.832,1.212,2.064,1.423,0.574,1.039,0.961,�쐼,3.4,��
2016/12/04,06:40,1.085,1.831,1.215,2.065,1.421,0.573,1.035,0.962,�쐼,3.7,��
2016/12/04,06:50,1.085,1.831,1.215,2.066,1.422,0.573,1.037,0.962,���쐼,4.5,��
2016/12/04,07:00,1.082,1.830,1.214,2.064,1.422,0.574,1.037,0.962,���쐼,4.9,��
2016/12/04,07:10,1.083,1.829,1.213,2.062,1.421,0.573,1.039,0.961,���쐼,4.4,��
2016/12/04,07:20,1.082,1.829,1.214,2.066,1.424,0.573,1.036,0.962,���쐼,4.1,��
2016/12/04,07:30,1.084,1.830,1.217,2.069,1.423,0.571,1.038,0.963,���쐼,3.8,��
2016/12/04,07:40,1.084,1.833,1.215,2.065,1.422,0.571,1.037,0.962,���쐼,3.4,��
2016/12/04,07:50,1.083,1.830,1.214,2.067,1.422,0.572,1.038,0.963,���쐼,2.6,��
2016/12/04,08:00,1.083,1.829,1.215,2.065,1.424,0.572,1.037,0.961,���쐼,2.0,��
2016/12/04,08:10,1.085,1.831,1.217,2.069,1.425,0.574,1.038,0.962,�쐼,2.8,��
2016/12/04,08:20,1.083,1.834,1.212,2.068,1.424,0.573,1.037,0.963,��,1.7,��
2016/12/04,08:30,1.086,1.835,1.217,2.067,1.426,0.573,1.039,0.962,��쓌,1.1,��
2016/12/04,08:40,1.086,1.832,1.220,2.072,1.426,0.572,1.041,0.962,���쓌,1.5,��
2016/12/04,08:50,1.089,1.836,1.215,2.068,1.425,0.573,1.039,0.964,��쓌,1.9,��
2016/12/04,09:00,1.088,1.836,1.219,2.069,1.425,0.573,1.037,0.963,�쓌,1.5,��
2016/12/04,09:10,1.087,1.836,1.216,2.069,1.429,0.573,1.038,0.963,���쓌,1.7,��
2016/12/04,09:20,1.088,1.837,1.215,2.075,1.429,0.574,1.040,0.965,���k��,1.1,��
2016/12/04,09:30,1.088,1.838,1.219,2.072,1.429,0.576,1.040,0.965,�k�k��,0.8,��
2016/12/04,09:40,1.086,1.835,1.216,2.073,1.428,0.575,1.039,0.966,�k,1.5,��
2016/12/04,09:50,1.088,1.840,1.218,2.070,1.428,0.574,1.039,0.964,�k��,1.5,��
2016/12/04,10:00,1.089,1.839,1.216,2.074,1.427,0.575,1.038,0.964,�k��,2.0,��
2016/12/04,10:10,1.091,1.838,1.219,2.070,1.429,0.575,1.039,0.963,�k��,1.7,��
2016/12/04,10:20,1.090,1.837,1.215,2.072,1.429,0.573,1.040,0.965,��,1.5,��
2016/12/04,10:30,1.090,1.834,1.217,2.073,1.428,0.575,1.038,0.965,���k��,2.3,��
2016/12/04,10:40,1.088,1.835,1.218,2.070,1.429,0.574,1.039,0.964,���k��,2.3,��
2016/12/04,10:50,1.089,1.837,1.218,2.070,1.429,0.573,1.040,0.964,�k��,2.8,��
2016/12/04,11:00,1.089,1.836,1.217,2.074,1.427,0.572,1.040,0.967,�k��,3.4,��
2016/12/04,11:10,1.089,1.836,1.217,2.071,1.429,0.573,1.038,0.964,�k��,3.4,��
2016/12/04,11:20,1.090,1.839,1.220,2.072,1.429,0.572,1.040,0.965,�k��,2.5,��
2016/12/04,11:30,1.092,1.838,1.218,2.074,1.431,0.573,1.039,0.967,�k�k��,2.3,��
2016/12/04,11:40,1.090,1.834,1.220,2.073,1.431,0.574,1.039,0.963,�k��,1.4,��
2016/12/04,11:50,1.091,1.835,1.218,2.074,1.429,0.574,1.037,0.965,�k��,1.4,��
2016/12/04,12:00,1.093,1.839,1.220,2.073,1.431,0.575,1.040,0.966,�k,1.5,��
2016/12/04,12:10,1.092,1.838,1.220,2.074,1.432,0.575,1.040,0.965,���k��,1.5,��
2016/12/04,12:20,1.092,1.839,1.220,2.073,1.429,0.575,1.040,0.964,�k��,1.4,��
2016/12/04,12:30,1.092,1.839,1.221,2.073,1.429,0.575,1.040,0.965,���k��,1.2,��
2016/12/04,12:40,1.091,1.835,1.219,2.074,1.427,0.575,1.042,0.966,���쓌,1.5,��
2016/12/04,12:50,1.090,1.839,1.220,2.073,1.430,0.576,1.038,0.964,���k��,0.6,��
2016/12/04,13:00,1.094,1.839,1.219,2.074,1.429,0.577,1.040,0.963,�k��,0.9,��
2016/12/04,13:10,1.092,1.836,1.220,2.074,1.429,0.576,1.040,0.964,��,1.4,��
2016/12/04,13:20,1.093,1.839,1.218,2.073,1.431,0.576,1.041,0.962,���쓌,2.0,��
2016/12/04,13:30,1.093,1.838,1.217,2.075,1.433,0.576,1.042,0.962,��,1.7,��
2016/12/04,13:40,1.093,1.839,1.221,2.075,1.429,0.576,1.040,0.962,���쓌,1.7,��
2016/12/04,13:50,1.095,1.835,1.218,2.079,1.432,0.577,1.040,0.964,��,1.2,��
2016/12/04,14:00,1.094,1.837,1.218,2.077,1.431,0.576,1.039,0.963,��,0.9,��
2016/12/04,14:10,1.092,1.841,1.219,2.076,1.432,0.575,1.038,0.964,���k��,1.4,��
2016/12/04,14:20,1.094,1.839,1.221,2.076,1.431,0.575,1.041,0.963,�쓌,0.8,��
2016/12/04,14:30,1.095,1.838,1.221,2.073,1.430,0.574,1.040,0.966,��쓌,1.2,��
2016/12/04,14:40,1.094,1.842,1.218,2.076,1.432,0.576,1.039,0.967,��쓌,0.9,��
2016/12/04,14:50,1.094,1.841,1.217,2.074,1.435,0.576,1.040,0.965,��쓌,0.6,��
2016/12/04,15:00,1.093,1.843,1.221,2.075,1.433,0.577,1.040,0.966,��쓌,0.9,��
2016/12/04,15:10,1.093,1.842,1.218,2.076,1.435,0.577,1.041,0.965,��,0.9,��
2016/12/04,15:20,1.094,1.839,1.221,2.076,1.436,0.576,1.040,0.966,��쓌,1.5,��
2016/12/04,15:30,1.096,1.840,1.219,2.075,1.434,0.575,1.040,0.965,��,1.9,��
2016/12/04,15:40,1.095,1.842,1.219,2.072,1.436,0.576,1.038,0.967,��,2.2,��
2016/12/04,15:50,1.093,1.843,1.220,2.073,1.436,0.576,1.041,0.965,��,2.3,��
2016/12/04,16:00,1.093,1.842,1.218,2.075,1.434,0.575,1.041,0.965,��,4.3,��
2016/12/04,16:10,1.092,1.843,1.218,2.075,1.433,0.576,1.041,0.967,��쐼,3.0,��
2016/12/04,16:20,1.092,1.841,1.219,2.074,1.433,0.577,1.041,0.963,��,3.5,��
2016/12/04,16:30,1.094,1.839,1.217,2.075,1.433,0.575,1.041,0.965,��,3.8,��
2016/12/04,16:40,1.094,1.840,1.216,2.072,1.431,0.575,1.041,0.964,��,3.5,��
2016/12/04,16:50,1.094,1.842,1.218,2.073,1.435,0.575,1.042,0.965,��,4.2,��
2016/12/04,17:00,1.094,1.838,1.217,2.073,1.434,0.573,1.041,0.964,��,4.3,��
2016/12/04,17:10,1.094,1.846,1.218,2.072,1.435,0.576,1.040,0.964,��,3.1,��
2016/12/04,17:20,1.094,1.841,1.219,2.075,1.431,0.576,1.041,0.965,��,4.2,��
2016/12/04,17:30,1.093,1.842,1.219,2.075,1.432,0.575,1.041,0.964,��,5.6,��
2016/12/04,17:40,1.091,1.841,1.218,2.075,1.433,0.574,1.041,0.963,��,5.9,��
2016/12/04,17:50,1.092,1.840,1.218,2.072,1.431,0.575,1.040,0.964,��,5.3,��
2016/12/04,18:00,1.092,1.841,1.217,2.073,1.434,0.575,1.042,0.964,��,5.5,��
2016/12/04,18:10,1.092,1.838,1.218,2.071,1.431,0.574,1.040,0.965,��,5.5,��
2016/12/04,18:20,1.092,1.839,1.217,2.071,1.433,0.576,1.044,0.964,��,6.3,��
2016/12/04,18:30,1.095,1.839,1.219,2.072,1.431,0.577,1.042,0.964,��,6.7,��
2016/12/04,18:40,1.094,1.839,1.218,2.074,1.434,0.574,1.043,0.964,��,6.8,��
2016/12/04,18:50,1.096,1.838,1.218,2.074,1.433,0.575,1.043,0.966,��,6.8,��
2016/12/04,19:00,1.094,1.842,1.217,2.073,1.433,0.576,1.044,0.965,��,5.9,��
2016/12/04,19:10,1.096,1.841,1.219,2.073,1.433,0.576,1.042,0.965,��,5.0,��
2016/12/04,19:20,1.094,1.841,1.217,2.074,1.432,0.574,1.043,0.966,��,4.5,��
2016/12/04,19:30,1.093,1.837,1.218,2.074,1.433,0.575,1.044,0.964,��,5.3,��
2016/12/04,19:40,1.095,1.841,1.218,2.073,1.431,0.576,1.040,0.965,��,5.2,��
2016/12/04,19:50,1.094,1.838,1.217,2.069,1.430,0.574,1.041,0.965,��쐼,4.6,��
2016/12/04,20:00,1.092,1.838,1.217,2.070,1.431,0.575,1.042,0.964,��쐼,3.5,��
2016/12/04,20:10,1.091,1.841,1.218,2.072,1.430,0.576,1.042,0.964,�쐼,2.6,��
2016/12/04,20:20,1.093,1.838,1.219,2.072,1.430,0.576,1.042,0.964,�쐼,2.5,��
2016/12/04,20:30,1.093,1.839,1.216,2.073,1.432,0.576,1.043,0.964,���쐼,1.7,��
2016/12/04,20:40,1.094,1.842,1.218,2.076,1.431,0.573,1.043,0.966,�쐼,3.5,��
2016/12/04,20:50,1.092,1.840,1.220,2.070,1.432,0.577,1.040,0.964,�쐼,6.6,��
2016/12/04,21:00,1.093,1.841,1.216,2.071,1.432,0.577,1.043,0.966,�쐼,5.3,��
2016/12/04,21:10,1.094,1.839,1.217,2.073,1.432,0.576,1.041,0.965,���쐼,3.3,��
2016/12/04,21:20,1.093,1.839,1.217,2.072,1.433,0.576,1.044,0.962,���쐼,3.0,��
2016/12/04,21:30,1.092,1.836,1.217,2.074,1.433,0.576,1.042,0.965,�쐼,3.2,��
2016/12/04,21:40,1.093,1.839,1.216,2.071,1.428,0.574,1.042,0.965,�쐼,2.8,��
2016/12/04,21:50,1.093,1.840,1.217,2.071,1.432,0.576,1.044,0.965,��쐼,4.2,��
2016/12/04,22:00,1.092,1.836,1.217,2.073,1.432,0.575,1.041,0.964,�쐼,4.1,��
2016/12/04,22:10,1.091,1.838,1.218,2.070,1.432,0.575,1.042,0.964,�쐼,4.0,��
2016/12/04,22:20,1.091,1.837,1.217,2.072,1.432,0.577,1.041,0.966,���쐼,2.5,��
2016/12/04,22:30,1.093,1.838,1.217,2.070,1.434,0.576,1.043,0.965,�쐼,2.6,��
2016/12/04,22:40,1.092,1.837,1.218,2.073,1.432,0.575,1.041,0.964,�쐼,3.5,��
2016/12/04,22:50,1.091,1.839,1.217,2.074,1.432,0.576,1.042,0.965,�쐼,3.7,��
2016/12/04,23:00,1.095,1.841,1.219,2.074,1.433,0.576,1.041,0.965,�쐼,3.6,��
2016/12/04,23:10,1.093,1.839,1.219,2.073,1.434,0.575,1.042,0.967,��쐼,5.1,��
2016/12/04,23:20,1.093,1.840,1.219,2.073,1.432,0.576,1.042,0.965,��쐼,3.7,��
2016/12/04,23:30,1.095,1.839,1.218,2.075,1.431,0.576,1.041,0.965,��쐼,3.2,��
2016/12/04,23:40,1.095,1.840,1.217,2.074,1.433,0.577,1.044,0.965,�쐼,4.5,��
2016/12/04,23:50,1.094,1.840,1.218,2.072,1.433,0.577,1.042,0.967,�쐼,5.3,��
